When you browse on this site, cookies collect data to enhance your experience and personalize the content and advertising you see.
Visit our Privacy Policy to learn more. By continuing to use the site, you agree to this use of cookies and data.
  • In Hungary
  • List of Countries
  • For 7 days
  • Water Temperature
  • Weather Map
  • News
  • Weather Widgets
  • user-avatar
    Login

    Hourly Weather Novaya Derevnya

    Today, 16 October, Wednesday

    Time Temperature Precipitation Wind Pressure Humidity
    00:00 +7°C° 0 mm 4 mps 755 mmHg 83%
    01:00 +7°C° 0 mm 4 mps 755 mmHg 83%
    02:00 +6°C° 0 mm 4 mps 756 mmHg 84%
    03:00 +5°C° 0 mm 3 mps 757 mmHg 85%
    04:00 +5°C° 0 mm 3 mps 757 mmHg 85%
    05:00 +4°C° 0 mm 3 mps 757 mmHg 85%
    06:00 +3°C° 0 mm 3 mps 757 mmHg 85%
    07:00 +4°C° 0 mm 3 mps 758 mmHg 82%
    08:00 +4°C° 0 mm 3 mps 758 mmHg 79%
    09:00 +4°C° 0 mm 3 mps 759 mmHg 76%
    10:00 +5°C° 0 mm 3 mps 759 mmHg 71%
    11:00 +7°C° 0 mm 2 mps 759 mmHg 66%
    12:00 +8°C° 0 mm 2 mps 759 mmHg 61%
    13:00 +9°C° 0 mm 2 mps 759 mmHg 58%
    14:00 +9°C° 0 mm 2 mps 759 mmHg 55%
    15:00 +10°C° 0 mm 2 mps 759 mmHg 53%
    16:00 +9°C° 0 mm 2 mps 759 mmHg 57%
    17:00 +8°C° 0 mm 2 mps 759 mmHg 61%
    18:00 +7°C° 0 mm 2 mps 759 mmHg 66%
    19:00 +7°C° 0 mm 2 mps 759 mmHg 67%
    20:00 +5°C° 0 mm 3 mps 759 mmHg 68%
    21:00 +5°C° 0 mm 3 mps 759 mmHg 69%
    22:00 +5°C° 0 mm 3 mps 759 mmHg 68%
    23:00 +5°C° 0 mm 3 mps 759 mmHg 67%

    Tomorrow, 17 October, Thursday

    Time Temperature Precipitation Wind Pressure Humidity
    00:00 +5°C° 0 mm 3 mps 759 mmHg 66%
    01:00 +5°C° 0 mm 3 mps 759 mmHg 67%
    02:00 +5°C° 0 mm 4 mps 759 mmHg 69%
    03:00 +5°C° 0 mm 4 mps 759 mmHg 70%
    04:00 +5°C° 0 mm 4 mps 758 mmHg 72%
    05:00 +4°C° 0 mm 4 mps 758 mmHg 75%
    06:00 +4°C° 0 mm 4 mps 758 mmHg 77%
    07:00 +5°C° 0 mm 4 mps 758 mmHg 74%
    08:00 +6°C° 0 mm 5 mps 758 mmHg 71%
    09:00 +7°C° 0 mm 5 mps 757 mmHg 67%
    10:00 +9°C° 0 mm 5 mps 757 mmHg 65%
    11:00 +10°C° 0 mm 6 mps 757 mmHg 63%
    12:00 +13°C° 0 mm 6 mps 757 mmHg 60%
    13:00 +13°C° 0 mm 6 mps 756 mmHg 60%
    14:00 +14°C° 0 mm 6 mps 756 mmHg 61%
    15:00 +14°C° 0 mm 6 mps 755 mmHg 61%
    16:00 +13°C° 0 mm 5 mps 755 mmHg 65%
    17:00 +12°C° 0 mm 5 mps 755 mmHg 69%
    18:00 +11°C° 0 mm 4 mps 754 mmHg 73%
    19:00 +10°C° 0 mm 5 mps 754 mmHg 73%
    20:00 +10°C° 0 mm 5 mps 754 mmHg 74%
    21:00 +9°C° 0 mm 5 mps 754 mmHg 74%
    22:00 +9°C° 0 mm 5 mps 753 mmHg 75%
    23:00 +9°C° 0 mm 5 mps 753 mmHg 77%

    Day after tomorrow, 18 October, Friday

    Time Temperature Precipitation Wind Pressure Humidity
    00:00 +9°C° 0 mm 5 mps 753 mmHg 78%
    01:00 +9°C° 0 mm 5 mps 752 mmHg 82%
    02:00 +9°C° 0 mm 5 mps 752 mmHg 85%
    03:00 +8°C° 0 mm 5 mps 752 mmHg 88%
    04:00 +8°C° 0 mm 4 mps 751 mmHg 89%
    05:00 +8°C° 0 mm 4 mps 751 mmHg 90%
    06:00 +8°C° 0 mm 4 mps 751 mmHg 91%
    07:00 +10°C° 0 mm 4 mps 751 mmHg 89%
    08:00 +11°C° 0 mm 4 mps 751 mmHg 86%
    09:00 +11°C° 0 mm 4 mps 751 mmHg 83%
    10:00 +13°C° 0 mm 4 mps 751 mmHg 78%
    11:00 +14°C° 0 mm 4 mps 751 mmHg 72%
    12:00 +17°C° 0 mm 4 mps 751 mmHg 66%
    13:00 +17°C° 0 mm 4 mps 751 mmHg 66%
    14:00 +17°C° 0 mm 4 mps 751 mmHg 65%
    15:00 +17°C° 0 mm 4 mps 751 mmHg 65%
    16:00 +15°C° 0 mm 4 mps 751 mmHg 70%
    17:00 +14°C° 0 mm 3 mps 751 mmHg 76%
    18:00 +12°C° 0 mm 3 mps 752 mmHg 81%
    19:00 +12°C° 0 mm 3 mps 752 mmHg 80%
    20:00 +12°C° 0 mm 3 mps 752 mmHg 79%
    21:00 +12°C° 0 mm 3 mps 752 mmHg 79%
    22:00 +13°C° 0 mm 2 mps 752 mmHg 79%
    23:00 +12°C° 0 mm 2 mps 753 mmHg 79%

    19 October, Saturday

    Time Temperature Precipitation Wind Pressure Humidity
    00:00 +12°C° 0 mm 1 mps 753 mmHg 79%
    01:00 +12°C° 0 mm 1 mps 753 mmHg 80%
    02:00 +12°C° 0 mm 1 mps 753 mmHg 80%
    03:00 +12°C° 0 mm 1 mps 753 mmHg 81%
    04:00 +12°C° 0 mm 1 mps 754 mmHg 80%
    05:00 +12°C° 0 mm 1 mps 754 mmHg 80%
    06:00 +12°C° 0 mm 1 mps 754 mmHg 80%
    07:00 +12°C° 0 mm 1 mps 754 mmHg 79%
    08:00 +13°C° 0 mm 1 mps 755 mmHg 79%
    09:00 +13°C° 0 mm 2 mps 755 mmHg 78%
    10:00 +14°C° 0 mm 2 mps 755 mmHg 73%
    11:00 +15°C° 0 mm 2 mps 755 mmHg 68%
    12:00 +16°C° 0 mm 3 mps 756 mmHg 63%
    13:00 +16°C° 0 mm 3 mps 756 mmHg 63%
    14:00 +16°C° 0 mm 3 mps 756 mmHg 62%
    15:00 +16°C° 0 mm 3 mps 756 mmHg 62%
    16:00 +15°C° 0 mm 2 mps 756 mmHg 67%
    17:00 +14°C° 0 mm 2 mps 756 mmHg 71%
    18:00 +13°C° 0 mm 2 mps 756 mmHg 76%
    19:00 +13°C° 0 mm 2 mps 756 mmHg 78%
    20:00 +12°C° 0 mm 1 mps 757 mmHg 80%
    21:00 +12°C° 0 mm 1 mps 757 mmHg 82%
    22:00 +12°C° 0 mm 1 mps 757 mmHg 83%
    23:00 +11°C° 0 mm 1 mps 757 mmHg 84%

    20 October, Sunday

    Time Temperature Precipitation Wind Pressure Humidity
    00:00 +11°C° 0 mm 1 mps 757 mmHg 84%
    01:00 +11°C° 0 mm 1 mps 758 mmHg 85%
    02:00 +10°C° 0 mm 1 mps 758 mmHg 87%
    03:00 +10°C° 0 mm 1 mps 758 mmHg 88%
    04:00 +10°C° 0 mm 1 mps 758 mmHg 89%
    05:00 +10°C° 0 mm 1 mps 758 mmHg 89%
    06:00 +10°C° 0 mm 1 mps 758 mmHg 90%
    07:00 +10°C° 0 mm 1 mps 758 mmHg 87%
    08:00 +10°C° 0 mm 2 mps 758 mmHg 84%
    09:00 +12°C° 0 mm 2 mps 759 mmHg 81%
    10:00 +13°C° 0 mm 2 mps 759 mmHg 76%
    11:00 +14°C° 0 mm 2 mps 759 mmHg 71%
    12:00 +16°C° 0 mm 2 mps 759 mmHg 66%
    13:00 +16°C° 0 mm 2 mps 759 mmHg 65%
    14:00 +16°C° 0 mm 2 mps 759 mmHg 64%
    15:00 +17°C° 0 mm 2 mps 759 mmHg 63%
    16:00 +16°C° 0 mm 2 mps 759 mmHg 67%
    17:00 +15°C° 0 mm 2 mps 759 mmHg 72%
    18:00 +14°C° 0 mm 2 mps 759 mmHg 77%
    19:00 +13°C° 0 mm 2 mps 759 mmHg 78%
    20:00 +13°C° 0 mm 2 mps 759 mmHg 80%
    21:00 +12°C° 0 mm 2 mps 759 mmHg 81%
    22:00 +12°C° 0 mm 2 mps 759 mmHg 82%
    23:00 +12°C° 0 mm 2 mps 759 mmHg 82%

    21 October, Monday

    Time Temperature Precipitation Wind Pressure Humidity
    00:00 +10°C° 0 mm 2 mps 759 mmHg 83%
    01:00 +10°C° 0 mm 2 mps 759 mmHg 83%
    02:00 +10°C° 0 mm 2 mps 759 mmHg 83%
    03:00 +10°C° 0 mm 2 mps 759 mmHg 83%
    04:00 +10°C° 0 mm 2 mps 759 mmHg 82%
    05:00 +9°C° 0 mm 3 mps 759 mmHg 82%
    06:00 +9°C° 0 mm 3 mps 759 mmHg 82%
    07:00 +10°C° 0 mm 3 mps 759 mmHg 78%
    08:00 +11°C° 0 mm 3 mps 759 mmHg 74%
    09:00 +12°C° 0 mm 3 mps 759 mmHg 70%
    10:00 +13°C° 0 mm 3 mps 759 mmHg 65%
    11:00 +14°C° 0 mm 4 mps 759 mmHg 60%
    12:00 +17°C° 0 mm 4 mps 759 mmHg 56%
    13:00 +17°C° 0 mm 4 mps 759 mmHg 55%
    14:00 +17°C° 0 mm 4 mps 758 mmHg 54%
    15:00 +17°C° 0 mm 5 mps 758 mmHg 53%
    16:00 +15°C° 0 mm 4 mps 758 mmHg 58%
    17:00 +14°C° 0 mm 4 mps 757 mmHg 63%
    18:00 +13°C° 0 mm 3 mps 757 mmHg 69%
    19:00 +12°C° 0 mm 4 mps 757 mmHg 70%
    20:00 +12°C° 0 mm 4 mps 757 mmHg 71%
    21:00 +12°C° 0 mm 4 mps 757 mmHg 72%
    22:00 +10°C° 0 mm 5 mps 756 mmHg 73%
    23:00 +10°C° 0 mm 5 mps 756 mmHg 73%
    Show more